Regional Weather Roundup
Issued by NWS Cleveland, OH

Home | Current Version | Previous Version | Text Only | Print | Product List | Glossary Off
Versions: 1 2 3 4 5 6 7 8 9 10 11 12 13 14 15 16 17 18 19 20 21 22 23 24 25 26 27 28 29 30 31 32 33 34 35 36 37 38 39 40 41 42 43 44 45 46 47 48 49 50

000
ASUS41 KCLE 261510
RWRCLE
OHIO REGIONAL WEATHER ROUNDUP
NATIONAL WEATHER SERVICE CLEVELAND, OH
1100 AM EDT SUN APR 26 2015

NOTE: "FAIR" INDICATES FEW OR NO CLOUDS BELOW 12,000 FEET WITH NO
SIGNIFICANT WEATHER AND/OR OBSTRUCTIONS TO VISIBILITY.

OHZ001>008-015>018-024>027-034-035-043-044-261600-
   NORTHWEST OHIO

CITY           SKY/WX    TMP DP  RH WIND       PRES   REMARKS
DEFIANCE       SUNNY     51  29  42 NE13      29.92R
FINDLAY        SUNNY     50  33  52 N16G22    29.88R
TOLEDO EXPRESS SUNNY     50  27  40 N9        29.90R
TOLEDO EXEC    SUNNY     49  30  48 NE10      29.92R
LIMA           SUNNY     48  36  63 N14       29.88R
$$

OHZ009>014-019>023-028>033-038-089-261600-
   NORTHEAST OHIO

CITY           SKY/WX    TMP DP  RH WIND       PRES   REMARKS
CLE-HOPKINS    SUNNY     47  36  65 N10       29.89R
CLE-LAKEFRONT  SUNNY     44  36  73 N12       29.86S
CUY CO. ARPT   NOT AVBL
LORAIN-ELYRIA  SUNNY     46  34  62 NE12      29.87R
ASHTABULA      SUNNY     50  31  48 VRB6      29.85S
AKRON-CANTON   MOSUNNY   52  26  36 NE10      29.82R
WOOSTER        SUNNY     50  29  44 N10       29.84R
MANSFIELD      SUNNY     50  30  46 NE15G22   29.84R
YOUNGSTOWN     MOSUNNY   50  28  42 E12       29.82S
$$

OHZ042-051>053-060>062-070>072-077>081-261600-
  SOUTHWEST OHIO

CITY           SKY/WX    TMP DP  RH WIND       PRES   REMARKS
CINC-COVINGTON MOSUNNY   50  36  58 N12G17    29.84R
CINC-LUNKEN    SUNNY     51  36  56 NE8       29.85R
HAMILTON       SUNNY     51  35  54 N12       29.87R
DAYTON         MOSUNNY   50  35  56 NE15      29.86R
WRIGHT-PAT AFB MOSUNNY   50  32  50 NE14      29.85R
DAYTON GENERAL PTSUNNY   50  34  54 NE10      29.83S
WILMINGTON     PTSUNNY   47  35  63 N10       29.83R
$$

OHZ036-037-039>041-045>050-054>059-063>069-073>076-082>088-261600-
  CENTRAL AND SOUTHEAST OHIO

CITY           SKY/WX    TMP DP  RH WIND       PRES   REMARKS
COLUMBUS       MOSUNNY   51  35  54 N15       29.81R
OSU AIRPORT    SUNNY     51  34  52 N9        29.82R
BOLTON FIELD   SUNNY     50  36  57 N9G17     29.82R
RICKENBACK AFB SUNNY     50  35  56 N9        29.81R
NEWARK         SUNNY     52  34  50 N10       29.80S
MARION         SUNNY     50  32  50 NE23      29.85R
LANCASTER      SUNNY     51  37  58 NE12      29.81R
ZANESVILLE     SUNNY     51  33  50 VRB5      29.79R
NEW PHILLY     SUNNY     54  31  41 N10       29.81R
$$


USA.gov is the U.S. government's official web portal to all federal, state and local government web resources and services.